If you wish to contribute or participate in the discussions about articles you are invited to join SKYbrary as a registered user

 Actions

Cristiano Ronaldo International Airport

From SKYbrary Wiki

LPMA
Airport
ICAO: LPMA – IATA: FNC
Summary
Name Cristiano Ronaldo International Airport
Region Northern Atlantic
Territory Portugal PT.gif
Location Santa Catarina, Região Autónoma da Madeira
Serving Funchal
Elevation 58.522 m <br />192 ft <br />192 ft58.522 m <br />
Coordinates 32° 41' 52.01" N, 16° 46' 27.98" W
Runways
Designator Length Width Surface ROPS
5/23 2777 m9,110.892 ft <br /> 45 m147.638 ft <br /> ASP yes/yes


METAR
Observation LPMA 131000Z 03015KT 9999 SCT013 SCT030 20/15 Q1024
Station Aeroporto Da Madeira
Date/Time 13 May 2021 10:00:00
Wind direction 30°
Wind speed 15 kts
Lowest cloud amount scattered clouds
Temperature 20°C
Dew point 15°C
Humidity 72%
QNH 1024 hPa
Weather condition n/a

CFIT
Tag(s) Runway Visual Perspective
RE
Tag(s) Crosswind Landings
WX
Tag(s) Low Level Turbulence

Cristiano Ronaldo International Airport, Madeira, commonly known as Madeira Airport or Funchal Airport , is an international airport in the civil parish of Santa Cruz in the Portuguese archipelago and autonomous region of Madeira.

Climatology

Temperate mediterranean climate (Köppen climate classification Csb)

Maps

Terrain

Loading map...

Airport Layout

Loading map...


Accidents & Serious Incidents at or in vicinity of LPMA

None on SKYbrary